Tracking 30743 objects as of 24-Jun-2025
HD Live streaming from Space Station
objects crossing your sky now

STARLINK-30355

Track STARLINK-30355 now!
10-day predictions
STARLINK-30355 is classified as:


NORAD ID: 57777
Int'l Code: 2023-134G
Perigee: 565.2 km
Apogee: 567.3 km
Inclination: 43.0 °
Period: 95.8 minutes
Semi major axis: 6937 km
RCS: Unknown
Launch date: September 4, 2023
Source: United States (US)
Launch site: AIR FORCE EASTERN TEST RANGE (AFETR)
Your satellite tracking list
Your tracking list is empty




NASA's NSSDC Master Catalog

Two Line Element Set (TLE):
1 57777U 23134G   25175.31540109  .00000345  00000-0  40649-4 0  9998
2 57777  43.0022 161.5361 0001524 296.7098  63.3588 15.02534500100595
Source of the keplerian elements: AFSPC